sat.trackr.live / text

‹ back to catalog

STARLINK-5215

NORAD 54759 · 2022-175B

PAYLOAD ACTIVE UNKNOWN

§ Identity

Operator
Country
US
Launch date
2022-12-17
Launch site
AFETR
Launch vehicle
Mass (kg)
RCS (m²)

Purposes: comms

External: N2YO · Heavens-Above · Gunter

§ Orbital elements

Epoch: 2026-05-25T01:10:36.865056Z

Period
95.44 min
Inclination
53.2136°
Eccentricity
0.0001613
Mean motion
15.08837208 rev/d
Perigee alt
538.6 km
Apogee alt
540.9 km
Semi-major
6,917.9 km
B*
1.8988e-6
RAAN
56.5580°
Arg perigee
89.5163°
Mean anomaly
270.6014°
Rev number
19,151

§ Raw data

STARLINK-52151 54759U 22175B   26145.04903779 -.00000258  00000+0  18988-5 0  99982 54759  53.2136  56.5580 0001613  89.5163 270.6014 15.08837208191513

JSON: /api/v1/satellites/54759 · /tle

For live sub-satellite position, see the globe view (requires WebGL).

§ Visibility from observer

Set your observer location to see the next 7 days of passes ≥ 10°. The values pass through the URL so the page stays shareable.

No JS? Fill the form by hand. The geolocation button needs JavaScript.